When you browse on this site, cookies collect data to enhance your experience and personalize the content and advertising you see.
Visit our Privacy Policy to learn more. By continuing to use the site, you agree to this use of cookies and data.
  • en France
  • Liste des pays
  • À 7 jours
  • Température de l'eau
  • Carte satellitaire
  • Carte météo
  • Widgets météo
  • user-avatar
    Se connecter

    Météo par heure à Rangpur

    Ce jour, 25 Mai, Samedi

    Heure Température Précipitation Vent Pression Humidité
    00:00 +25°C° 0 mm 3 m/s 750 mmHg 85%
    01:00 +25°C° 0.6 mm 3 m/s 750 mmHg 85%
    02:00 +25°C° 0.6 mm 3 m/s 749 mmHg 86%
    03:00 +25°C° 0.6 mm 4 m/s 749 mmHg 87%
    04:00 +25°C° 1.5 mm 4 m/s 749 mmHg 88%
    05:00 +25°C° 1.5 mm 4 m/s 749 mmHg 90%
    06:00 +26°C° 0 mm 3 m/s 749 mmHg 94%
    07:00 +26°C° 0.7 mm 3 m/s 749 mmHg 93%
    08:00 +26°C° 0.7 mm 4 m/s 749 mmHg 93%
    09:00 +26°C° 0.7 mm 4 m/s 750 mmHg 92%
    10:00 +27°C° 1.1 mm 4 m/s 750 mmHg 89%
    11:00 +29°C° 1.1 mm 4 m/s 750 mmHg 87%
    12:00 +29°C° 0 mm 6 m/s 750 mmHg 85%
    13:00 +30°C° 0 mm 5 m/s 749 mmHg 82%
    14:00 +32°C° 0 mm 4 m/s 749 mmHg 79%
    15:00 +34°C° 0 mm 3 m/s 748 mmHg 76%
    16:00 +34°C° 0.2 mm 3 m/s 747 mmHg 77%
    17:00 +34°C° 0.2 mm 2 m/s 747 mmHg 78%
    18:00 +34°C° 0.2 mm 2 m/s 747 mmHg 80%
    19:00 +31°C° 1.2 mm 3 m/s 747 mmHg 83%
    20:00 +30°C° 1.2 mm 3 m/s 748 mmHg 86%
    21:00 +29°C° 1.2 mm 3 m/s 749 mmHg 88%
    22:00 +29°C° 0 mm 3 m/s 749 mmHg 89%
    23:00 +28°C° 0 mm 3 m/s 749 mmHg 90%

    Demain, 26 Mai, Dimanche

    Heure Température Précipitation Vent Pression Humidité
    00:00 +28°C° 0 mm 2 m/s 748 mmHg 91%
    01:00 +28°C° 0 mm 2 m/s 748 mmHg 92%
    02:00 +28°C° 0 mm 2 m/s 748 mmHg 93%
    03:00 +27°C° 0 mm 3 m/s 748 mmHg 94%
    04:00 +27°C° 0.9 mm 3 m/s 748 mmHg 94%
    05:00 +27°C° 0.9 mm 3 m/s 749 mmHg 95%
    06:00 +27°C° 0.9 mm 3 m/s 749 mmHg 95%
    07:00 +29°C° 1 mm 3 m/s 749 mmHg 89%
    08:00 +30°C° 1 mm 3 m/s 750 mmHg 83%
    09:00 +33°C° 1 mm 3 m/s 750 mmHg 77%
    10:00 +34°C° 0.2 mm 4 m/s 750 mmHg 74%
    11:00 +35°C° 0.2 mm 4 m/s 750 mmHg 71%
    12:00 +36°C° 0.2 mm 4 m/s 749 mmHg 67%
    13:00 +36°C° 0.2 mm 4 m/s 749 mmHg 67%
    14:00 +36°C° 0.2 mm 4 m/s 748 mmHg 66%
    15:00 +37°C° 0.2 mm 4 m/s 748 mmHg 66%
    16:00 +36°C° 0.5 mm 4 m/s 748 mmHg 69%
    17:00 +36°C° 0.5 mm 3 m/s 747 mmHg 72%
    18:00 +35°C° 0.5 mm 2 m/s 747 mmHg 74%
    19:00 +34°C° 0.5 mm 3 m/s 748 mmHg 78%
    20:00 +33°C° 0.5 mm 3 m/s 748 mmHg 82%
    21:00 +32°C° 0.5 mm 4 m/s 749 mmHg 85%
    22:00 +30°C° 0.2 mm 4 m/s 749 mmHg 86%
    23:00 +30°C° 0.2 mm 3 m/s 749 mmHg 87%

    Après-demain, 27 Mai, Lundi

    Heure Température Précipitation Vent Pression Humidité
    00:00 +29°C° 0.2 mm 3 m/s 749 mmHg 88%
    01:00 +29°C° 0.9 mm 3 m/s 749 mmHg 90%
    02:00 +28°C° 0.9 mm 3 m/s 749 mmHg 92%
    03:00 +28°C° 0.9 mm 4 m/s 749 mmHg 94%
    04:00 +28°C° 0.6 mm 4 m/s 749 mmHg 93%
    05:00 +28°C° 0.6 mm 4 m/s 749 mmHg 93%
    06:00 +28°C° 0.6 mm 4 m/s 749 mmHg 93%
    07:00 +28°C° 0.7 mm 4 m/s 750 mmHg 91%
    08:00 +28°C° 0.7 mm 4 m/s 750 mmHg 89%
    09:00 +29°C° 0.7 mm 4 m/s 750 mmHg 87%
    10:00 +30°C° 0.1 mm 4 m/s 750 mmHg 84%
    11:00 +31°C° 0.1 mm 3 m/s 750 mmHg 80%
    12:00 +34°C° 0.1 mm 3 m/s 750 mmHg 76%
    13:00 +35°C° 0.1 mm 3 m/s 749 mmHg 72%
    14:00 +36°C° 0.1 mm 3 m/s 749 mmHg 68%
    15:00 +37°C° 0.1 mm 3 m/s 748 mmHg 64%
    16:00 +37°C° 0.1 mm 3 m/s 748 mmHg 67%
    17:00 +36°C° 0.1 mm 3 m/s 748 mmHg 70%
    18:00 +36°C° 0.1 mm 3 m/s 747 mmHg 73%
    19:00 +34°C° 0.7 mm 3 m/s 748 mmHg 77%
    20:00 +33°C° 0.7 mm 4 m/s 749 mmHg 81%
    21:00 +30°C° 0.7 mm 4 m/s 749 mmHg 86%
    22:00 +30°C° 1 mm 4 m/s 749 mmHg 86%
    23:00 +29°C° 1 mm 4 m/s 749 mmHg 87%

    28 Mai, Mardi

    Heure Température Précipitation Vent Pression Humidité
    00:00 +29°C° 1 mm 4 m/s 749 mmHg 87%
    01:00 +28°C° 1.1 mm 4 m/s 749 mmHg 88%
    02:00 +28°C° 1.1 mm 4 m/s 749 mmHg 89%
    03:00 +28°C° 1.1 mm 4 m/s 749 mmHg 90%
    04:00 +28°C° 1.5 mm 4 m/s 749 mmHg 91%
    05:00 +28°C° 1.5 mm 4 m/s 749 mmHg 92%
    06:00 +27°C° 1.5 mm 4 m/s 750 mmHg 92%
    07:00 +28°C° 1 mm 5 m/s 750 mmHg 89%
    08:00 +29°C° 1 mm 5 m/s 751 mmHg 87%
    09:00 +30°C° 1 mm 5 m/s 751 mmHg 84%
    10:00 +33°C° 0 mm 4 m/s 751 mmHg 78%
    11:00 +35°C° 0 mm 4 m/s 751 mmHg 73%
    12:00 +36°C° 0 mm 4 m/s 750 mmHg 67%
    13:00 +36°C° 0.1 mm 4 m/s 750 mmHg 67%
    14:00 +37°C° 0.1 mm 4 m/s 749 mmHg 66%
    15:00 +37°C° 0.1 mm 4 m/s 748 mmHg 65%
    16:00 +37°C° 0.1 mm 3 m/s 748 mmHg 67%
    17:00 +36°C° 0.1 mm 3 m/s 747 mmHg 69%
    18:00 +36°C° 0.1 mm 2 m/s 747 mmHg 71%
    19:00 +35°C° 0.4 mm 3 m/s 748 mmHg 74%
    20:00 +33°C° 0.4 mm 3 m/s 748 mmHg 78%
    21:00 +31°C° 0.4 mm 3 m/s 749 mmHg 82%
    22:00 +30°C° 1 mm 4 m/s 749 mmHg 83%
    23:00 +30°C° 1 mm 4 m/s 749 mmHg 84%

    29 Mai, Mercredi

    Heure Température Précipitation Vent Pression Humidité
    00:00 +29°C° 1 mm 5 m/s 749 mmHg 86%
    01:00 +29°C° 0.2 mm 5 m/s 749 mmHg 87%
    02:00 +28°C° 0.2 mm 4 m/s 749 mmHg 88%
    03:00 +28°C° 0.2 mm 4 m/s 748 mmHg 89%
    04:00 +28°C° 1.4 mm 4 m/s 748 mmHg 90%
    05:00 +28°C° 1.4 mm 4 m/s 749 mmHg 91%
    06:00 +28°C° 1.4 mm 4 m/s 749 mmHg 92%
    07:00 +28°C° 1 mm 4 m/s 749 mmHg 90%
    08:00 +29°C° 1 mm 5 m/s 750 mmHg 87%
    09:00 +30°C° 1 mm 5 m/s 750 mmHg 85%
    10:00 +32°C° 0.1 mm 5 m/s 750 mmHg 81%
    11:00 +34°C° 0.1 mm 5 m/s 750 mmHg 76%
    12:00 +35°C° 0.1 mm 4 m/s 750 mmHg 72%
    13:00 +36°C° 0.2 mm 4 m/s 749 mmHg 69%
    14:00 +37°C° 0.2 mm 4 m/s 748 mmHg 67%
    15:00 +37°C° 0.2 mm 4 m/s 747 mmHg 64%
    16:00 +37°C° 1.1 mm 3 m/s 747 mmHg 68%
    17:00 +36°C° 1.1 mm 3 m/s 747 mmHg 71%
    18:00 +35°C° 1.1 mm 3 m/s 746 mmHg 74%
    19:00 +34°C° 0.8 mm 4 m/s 747 mmHg 78%
    20:00 +33°C° 0.8 mm 4 m/s 747 mmHg 82%
    21:00 +30°C° 0.8 mm 4 m/s 748 mmHg 85%
    22:00 +30°C° 2.8 mm 4 m/s 748 mmHg 87%
    23:00 +29°C° 2.8 mm 5 m/s 748 mmHg 88%

    30 Mai, Jeudi

    Heure Température Précipitation Vent Pression Humidité
    00:00 +28°C° 2.8 mm 5 m/s 748 mmHg 90%
    01:00 +29°C° 0.3 mm 4 m/s 748 mmHg 90%
    02:00 +29°C° 0.3 mm 4 m/s 748 mmHg 91%
    03:00 +29°C° 0.3 mm 4 m/s 748 mmHg 92%
    04:00 +29°C° 1.9 mm 4 m/s 748 mmHg 92%
    05:00 +28°C° 1.9 mm 4 m/s 748 mmHg 93%
    06:00 +28°C° 1.9 mm 4 m/s 749 mmHg 93%
    07:00 +29°C° 1.5 mm 4 m/s 749 mmHg 91%
    08:00 +30°C° 1.5 mm 4 m/s 750 mmHg 88%
    09:00 +32°C° 1.5 mm 4 m/s 750 mmHg 86%
    10:00 +33°C° 0.3 mm 4 m/s 750 mmHg 80%
    11:00 +35°C° 0.3 mm 4 m/s 749 mmHg 74%
    12:00 +36°C° 0.3 mm 4 m/s 749 mmHg 68%
    13:00 +36°C° 0.5 mm 4 m/s 748 mmHg 67%
    14:00 +37°C° 0.5 mm 4 m/s 747 mmHg 66%
    15:00 +37°C° 0.5 mm 4 m/s 746 mmHg 64%
    16:00 +36°C° 0.7 mm 4 m/s 746 mmHg 68%
    17:00 +36°C° 0.7 mm 3 m/s 746 mmHg 71%
    18:00 +35°C° 0.7 mm 3 m/s 746 mmHg 74%
    19:00 +34°C° 1 mm 3 m/s 746 mmHg 77%
    20:00 +33°C° 1 mm 4 m/s 747 mmHg 80%
    21:00 +30°C° 1 mm 5 m/s 748 mmHg 83%
    22:00 +30°C° 2.5 mm 4 m/s 748 mmHg 85%
    23:00 +29°C° 2.5 mm 4 m/s 748 mmHg 88%
    Voir plus